Skip Page Navigation
NASA JPL Caltech
NASA Logo - Jet Propulsion Laboratory + View the NASA Portal
+ Center for Near-Earth Object Studies
JPL Home Earth Solar System Stars & Galaxies Technology
JPL Solar System Dynamics
BODIES ORBITS EPHEMERIDES TOOLS PHYSICAL DATA DISCOVERY FAQ SITE MAP
JPL Small-Body Database Browser
Search: [ help ]  
120030 (2003 AF65)
Classification: Main-belt Asteroid          SPK-ID: 2120030
Ephemeris | Orbit Diagram | Orbital Elements | Mission Design | Physical Parameters | Discovery Circumstances ]

[ show orbit diagram ]
Orbital Elements at Epoch 2459000.5 (2020-May-31.0) TDB
Reference: JPL 16 (heliocentric ecliptic J2000)
 Element Value Uncertainty (1-sigma)   Units 
e .128221608142267 3.7963e-08  
a 2.308305246494897 1.033e-08 au
q 2.012330635706089 9.053e-08 au
i 7.507675319151458 8.2741e-06 deg
node 14.41896525503106 2.7442e-05 deg
peri 96.27930435244173 4.326e-05 deg
M 343.1935377577383 3.1995e-05 deg
tp 2459060.301501476094
(2020-Jul-29.80150148)
0.00011391 TDB
period 1280.968012248168
3.51
8.5988e-06
2.354e-08
d
yr
n .2810374627295966 1.8865e-09 deg/d
Q 2.604279857283705 1.1655e-08 au
  Orbit Determination Parameters
   # obs. used (total)      514  
   data-arc span      10352 days (28.34 yr)  
   first obs. used      1991-10-01  
   last obs. used      2020-02-03  
   planetary ephem.      DE431  
   SB-pert. ephem.      SB431-N16  
   condition code      0  
   norm. resid. RMS      .56773  
   source      ORB  
   producer      Otto Matic  
   solution date      2020-Feb-24 06:14:29  

Additional Information
 Earth MOID = 1.04507 au 
 Jupiter MOID = 2.50598 au 
 T_jup = 3.564 
[ show covariance matrix ]

Ephemeris | Orbit Diagram | Orbital Elements | Mission Design | Physical Parameters | Discovery Circumstances ]

Physical Parameter Table
Parameter Symbol Value Units Sigma Reference Notes
absolute magnitude H 16.5   n/a MPO351693  

120030 (2003 AF65)          Discovered 2003-Jan-07 by LINEAR at Socorro
Reference: 20051116/Numbers.arcLast Updated: 2005-11-21

Alternate Designations
 2003 AF65 = 2000 GT41 
Ephemeris | Orbit Diagram | Orbital Elements | Mission Design | Physical Parameters | Discovery Circumstances ]
ABOUT SSD CREDITS/AWARDS PRIVACY/COPYRIGHT GLOSSARY LINKS
FirstGov 2020-Oct-30 18:11 UT
(server date/time)  
NASA Home Page
Site Manager:   Ryan S. Park
Webmaster  Alan B. Chamberlin